Regional Weather Roundup
Issued by NWS

Home | Current Version | Previous Version | Text Only | Print | Product List | Glossary Off
Versions: 1 2 3 4 5 6 7 8 9 10 11 12 13 14 15 16 17 18 19 20 21 22 23 24 25 26 27 28 29 30 31 32 33 34 35 36 37 38 39 40 41 42 43 44 45 46 47 48 49

000
ASUS45 KCYS 130410
RWRWY

WYOMING REGIONAL WEATHER ROUNDUP
NATIONAL WEATHER SERVICE CHEYENNE WY
1000 PM MDT SAT JUL 12 2014

NOTE:  "FAIR" INDICATES FEW OR NO CLOUDS BELOW 12,000 FEET
WITH NO SIGNIFICANT WEATHER AND/OR OBSTRUCTIONS TO VISIBILITY.

WYZ001-130500-
YELLOWSTONE NATIONAL PARK

CITY           SKY/WX    TMP DP  RH WIND       PRES   REMARKS
LK YELLOWSTONE   N/A     51  50  96 CALM      30.54R
W YELLOWSTONE  NOT AVBL

$$
WYZ002>013-054>058-071-098>099-130500-
NORTHERN WYOMING

CITY           SKY/WX    TMP DP  RH WIND       PRES   REMARKS
JACKSON        CLEAR     61  52  72 N13       30.42R
CODY           CLOUDY    70  54  56 SW7       30.32S
GREYBULL       MOCLDY    79  45  29 NW8       30.22R
WORLAND        MOCLDY    72  53  51 S3        30.25R
SHERIDAN       MOCLDY    68  56  65 W3        30.26R
BUFFALO        MOCLDY    66  54  65 W7        30.33R
GILLETTE       PTCLDY    60  51  72 SW3       30.28R
HULETT         FAIR      68  48  49 MISG      30.28
NEWCASTLE      FAIR      68  50  52 N7        30.27

$$
WYZ014>020-022>026-101>103-130500-
CENTRAL WYOMING

CITY           SKY/WX    TMP DP  RH WIND       PRES   REMARKS
BIG PINEY      CLOUDY    65  50  58 NE6       30.47R
PINEDALE       MOCLDY    59  54  82 W5        30.47R
DUBOIS         FAIR      55  52  88 N5        30.48F
LANDER         CLOUDY    69  51  52 SW7       30.37R
RIVERTON       CLOUDY    66  54  65 W9        30.37R
CASPER         MOCLDY    67  53  61 N7        30.34R
DOUGLAS        MOCLDY    70  52  52 NE6       30.32R

$$
WYZ021-027>030-104>119-130500-
SOUTHERN WYOMING

CITY           SKY/WX    TMP DP  RH WIND       PRES   REMARKS
EVANSTON       MOCLDY    74  47  38 NE6       30.39R
KEMMERER       MOCLDY    68  46  45 NE21G26   30.43R
FORT BRIDGER   CLOUDY    75  46  34 N7        30.40  THUNDER
ROCK SPRINGS   MOCLDY    67  50  54 NE23G33   30.40R
DIXON          FAIR      68  48  50 E8        30.37R
RAWLINS        PTCLDY    66  48  52 NE13      30.42R
SARATOGA       CLOUDY    70  50  49 CALM      30.42R
LARAMIE        PTCLDY    59  51  75 SE8       30.44R
CHEYENNE       PTCLDY    66  54  65 SE7       30.38R
TORRINGTON     PTCLDY    65  60  84 E12       30.26R

$$



USA.gov is the U.S. government's official web portal to all federal, state and local government web resources and services.